Tracking 19176 objects as of 27-May-2018
HD Live streaming from Space Station
objects crossing your sky now

FENGYUN 1C DEB

Track FENGYUN 1C DEB now!
10-day predictions


NORAD ID: 30304
Int'l Code: 1999-025ZR
Perigee: 820.3 km
Apogee: 949.4 km
Inclination: 99.2 °
Period: 102.5 minutes
Semi major axis: 7255 km
RCS: 0.0114 m2 (small)
Launch date: May 10, 1999
Source: People's Republic of China (PRC)
Launch site: Taiyaun Space Center, China (TSC)

Note: This is SATELLITE DEBRIS
aabbcc
Your satellite tracking list
Your tracking list is empty




NASA's NSSDC Master Catalog

Two Line Element Set (TLE):
1 30304U 99025ZR  18146.74587670 +.00000520 +00000-0 +34153-3 0  9995
2 30304 099.2104 151.9540 0088953 172.6394 187.6102 14.04666677580282
Source of the keplerian elements: AFSPC